Location: Huntsville
(41.2590°N, 111.7678°W)
Time: 13:30:27
(UTC+00:00)

A-11 Canister half - Visible Passes

Search period start: 22 June 2021 00:00
Search period end: 02 July 2021 00:00
Orbit: 1527 x 1681 km, 47.3° (Epoch: 21 June)

Date Brightness Start Highest point End Pass type
(mag) Time Alt. Az. Time Alt. Az. Time Alt. Az.
22 Jun 9.1 04:41:00 10° SSW 04:50:05 51° SE 04:58:58 10° ENE visible
22 Jun 9.1 06:45:25 10° WSW 06:54:52 75° NNW 07:04:12 10° ENE visible
22 Jun 9.4 08:51:30 10° WNW 09:00:45 61° N 09:10:00 10° E visible
22 Jun 9.0 10:56:59 10° WNW 11:06:20 87° SSW 11:15:48 10° ESE visible
23 Jun 9.1 04:19:26 10° SSW 04:28:28 49° SE 04:37:18 10° ENE visible
23 Jun 9.1 06:23:43 10° WSW 06:33:11 77° NNW 06:42:33 10° ENE visible
23 Jun 9.4 08:29:48 10° WNW 08:39:03 61° N 08:48:17 10° E visible
23 Jun 9.0 10:35:19 10° WNW 10:44:41 90° WSW 10:54:07 10° ESE visible
24 Jun 9.2 03:57:53 10° SSW 04:06:51 47° SE 04:15:37 10° ENE visible
24 Jun 9.0 06:02:00 10° WSW 06:11:31 79° NNW 06:20:53 10° ENE visible
24 Jun 9.4 08:08:05 10° WNW 08:17:21 61° N 08:26:34 10° E visible
24 Jun 9.0 10:13:40 10° WNW 10:23:02 88° NNE 10:32:28 10° ESE visible
25 Jun 9.2 03:36:21 10° SSW 03:45:15 45° SE 03:53:56 10° ENE visible
25 Jun 9.0 05:40:18 10° WSW 05:49:51 80° NNW 05:59:13 10° ENE visible
25 Jun 9.4 07:46:22 10° WNW 07:55:39 60° N 08:04:52 10° E visible
25 Jun 9.0 09:52:00 10° WNW 10:01:22 86° NNE 10:10:47 10° ESE visible
26 Jun 9.0 05:18:36 10° WSW 05:28:10 82° NNW 05:37:33 10° ENE visible
26 Jun 9.4 07:24:40 10° W 07:33:57 60° N 07:43:10 10° E visible
26 Jun 9.0 09:30:20 10° WNW 09:39:42 83° NNE 09:49:06 10° ESE visible
27 Jun 9.0 04:56:54 10° WSW 05:06:30 85° NNW 05:15:54 10° ENE visible
27 Jun 9.4 07:02:56 10° W 07:12:15 60° N 07:21:27 10° E visible
27 Jun 9.0 09:08:40 10° WNW 09:18:03 81° NNE 09:27:26 10° ESE visible
27 Jun 9.3 11:14:00 10° WNW 11:22:35 43° SW 11:31:14 10° SSE visible
28 Jun 9.0 04:35:13 10° WSW 04:44:50 87° NNW 04:54:14 10° ENE visible
28 Jun 9.4 06:41:13 10° W 06:50:33 61° N 06:59:46 10° ENE visible
28 Jun 9.0 08:46:59 10° WNW 08:56:23 79° NNE 09:05:45 10° ESE visible
28 Jun 9.2 10:52:19 10° WNW 11:00:58 45° SW 11:09:42 10° SSE visible
29 Jun 9.0 04:13:31 10° WSW 04:23:10 89° NNW 04:32:35 10° ENE visible
29 Jun 9.4 06:19:29 10° W 06:28:51 61° N 06:38:04 10° ENE visible
29 Jun 9.0 08:25:18 10° WNW 08:34:42 77° NNE 08:44:03 10° ESE visible
29 Jun 9.1 10:30:37 10° WNW 10:39:22 48° SW 10:48:11 10° SSE visible
30 Jun 9.0 03:51:50 10° WSW 04:01:30 89° SSE 04:10:56 10° ENE visible
30 Jun 9.4 05:57:45 10° W 06:07:09 61° N 06:16:22 10° ENE visible
30 Jun 9.1 08:03:38 10° WNW 08:13:02 76° NNE 08:22:22 10° ESE visible
30 Jun 9.1 10:08:55 10° WNW 10:17:46 50° SW 10:26:38 10° SSE visible
01 Jul 9.1 03:30:09 10° WSW 03:39:50 86° SSE 03:49:17 10° ENE visible
01 Jul 9.4 05:36:02 10° W 05:45:27 61° N 05:54:41 10° ENE visible
01 Jul 9.1 07:41:56 10° WNW 07:51:22 74° NNE 08:00:41 10° ESE visible
01 Jul 9.0 09:47:14 10° WNW 09:56:09 52° SW 10:05:05 10° SSE visible
